Location: Newark
(50.4348°N, 30.5552°E)
Time: 03:46:06
(UTC+00:00)

Altair - Pass Details

Date: 25 January 2020
Orbit: 1502 x 1682 km, 47.2° (Epoch: 18 February)

Event Time Altitude Azimuth Distance (km) Brightness Sun altitude
Rises 12:00:29 0° 285° (WNW) 4,940 10.3 16.4°
Reaches altitude 10° 12:03:47 10° 281° (W) 3,948 9.9 16.2°
Maximum altitude 12:13:22 50° 211° (SSW) 2,041 9.3 15.4°
Drops below altitude 10° 12:22:44 10° 140° (SE) 3,852 9.9 14.6°
Sets 12:25:55 0° 135° (SE) 4,812 10.3 14.4°
